Probability
0 0 0 0 0 0 0 0 0 0 0 0 0 0 0 0 0 0 0 0 0 0 0 0 0 0 0 0 0 0 0 0 0 0 0 0 0 0 0 0 0 0 0 0
0 0 0 0 0 0 0 0 0 0 0 0 0 0 0 0 0 0 0 0 0 0 0 0 0 0 0 0 0 0 0 0 0 0 0 0 0 0 0 0 0 0 0 0
0 0 0 0 0 0 0 0 0 0 0 0 0 0 0 0 0 0 0 0 0 0 0 0 0 0 0 0 0 0 0 0 0 0 0 0 0 0 0 0 0 0 0 0
0 0 0 0 0 0 0 0 0 0 0 0 0 0 0 0 0 0 0 0 0 0 0 0 0 0 0 0 0 0 0 0 0 0 0 0 0 0 0 0 0 0 0 0
0 0 0 0 0 0 0 0 0 0 0 0 0 0 0 0 0 0 0 0 0 0 0 0 0 0 0 0 0 0 0 0 0 0 0 0 0 0 0 0 0 0 0 0
0 0 0 0 0 0 0 0 0 0 0 0 0 0 0 0 0 0 0 0 0 0 0 0 0 0 0 0 0 0 0 0 0 0 0 0 0 0 0 0 0 0 0 0
0 0 0 0 0 0 0 0 0 0 0 0 0 0 0 0 0 0 0 0 0 0 0 0 0 0 0 0 0 0 0 0 0 0 0 0 0 0 0 0 0 0 0 0
0 0 0 0 0 0 0 0 0 0 0 0 0 0 0 0 0 0 0 0 0 0 0 0 0 0 0 0 0 0 0 0 0 0 0 0 0 0 0 0 0 0 0 0
0 0 0 0 0 0 0 0 0 0 0 0 0 0 0 0 0 0 0 0 0 0 0 0 0 0 0 0 0 0 0 0 0 0 0 0 0 0 0 0 0 0 0 0
0 0 0 0 0 0 0 0 0 0 0 0 0 0 0 0 0 0 0 0 0 0 0 0 0 0 0 0 0 0 0 0 0 0 0 0 0 0 0 0 0 0 0 0
0 0 0 0 0 0 0 0 0 0 0 0 0 0 0 0 0 0 0 0 0 0 0 0 0 0 0 0 0 0 0 0 0 0 0 0 0 0 0 0 0 0 0 0
0 0 0 0 0 0 0 0 0 0 0 0 0 0 0 0 0 0 0 0 0 0 0 0 0 0 0 0 0 0 0 0 0 0 0 0 0 0 0 0 0 0 0 0
0 0 0 0 0 0 0 0 0 0 0 0 0 0 0 0 0 0 0 0 0 0 0 0 0 0 0 0 0 0 0 0 0 0 0 0 0 0 0 0 0 0 0 0
0 0 0 0 0 0 0 0 0 0 0 0 0 0 0 0 0 0 0 0 0 0 0 0 0 0 0 0 0 0 0 0 0 0 0 0 0 0 0 0 0 0 0 0
0 0 0 0 0 0 0 0 0 0 0 0 0 0 0 0 0 0 0 0 0 0 0 0 0 0 0 0 0 0 0 0 0 0 0 0 0 0 0 0 0 0 0 0
0 0 0 0 0 0 0 0 0 0 0 0 0 0 0 0 0 0 0 0 0 0 0 0 0 0 0 0 0 0 0 0 0 0 0 0 0 0 0 0 0 0 0 0
0 0 0 0 0 0 0 0 0 0 0 0 0 0 0 0 0 0 0 0 0 0 0 0 0 0 0 0 0 0 0 0 0 0 0 0 0 0 0 0 0 0 0 0
0 0 0 0 0 0 0 0 0 0 0 0 0 0 0 0 0 0 0 0 0 0 0 0 0 0 0 0 0 0 0 0 0 0 0 0 0 0 0 0 0 0 0 0
0 0 0 0 0 0 0 0 0 0 0 0 0 0 0 0 0 0 0 0 0 0 0 0 0 0 0 0 0 0 0 0 0 0 0 0 0 0 0 0 0 0 0 0
0 0 0 0 0 0 0 0 0 0 0 0 0 0 0 0 0 0 0 0 0 0 0 0 0 0 0 0 0 0 0 0 0 0 0 0 0 0 0 0 0 0 0 0
0 0 0 0 0 0 0 0 0 0 0 0 0 0 0 0 0 0 0 0 0 0 0 0 0 0 0 0 0 0 0 0 0 0 0 0 0 0 0 0 0 0 0 0
0 0 0 0 0 0 0 0 0 0 0 0 0 0 0 0 0 0 0 0 0 0 0 0 0 0 0 0 0 0 0 0 0 0 0 0 0 0 0 0 0 0 0 0
0 0 0 0 0 0 0 0 0 0 0 0 0 0 0 0 0 0 0 0 0 0 0 0 0 0 0 0 0 0 0 0 0 0 0 0 0 0 0 0 0 0 0 0
0 0 0 0 0 0 0 0 0 0 0 0 0 0 0 0 0 0 0 0 0 0 0 0 0 0 0 0 0 0 0 0 0 0 0 0 0 0 0 0 0 0 0 0
0 0 0 0 0 0 0 0 0 0 0 0 0 0 0 0 0 0 0 0 0 0 0 0 0 0 0 0 0 0 0 0 0 0 0 0 0 0 0 0 0 0 0 0
0 0 0 0 0 0 0 0 0 0 0 0 0 0 0 0 0 0 0 0 0 0 0 0 0 0 0 0 0 0 0 0 0 0 0 0 0 0 0 0 0 0 0 0
0 0 0 0 0 0 0 0 0 0 0 0 0 0 0 0 0 0 0 0 0 0 0 0 0 0 0 0 0 0 0 0 0 0 0 0 0 0 0 0 0 0 0 0
Wind_Speed
3 4 3 3 2 2 4 7 7 7 9 9 9 9 8 7 6 6 4 4 3 2 3 3 4 4 4 4 4 4 4 5 6 7 6 7 7 7 7 7 8 7 7 8
4 5 5 4 2 1 2 4 7 8 5 6 5 5 4 5 6 5 4 3 2 1 2 4 4 4 4 4 5 4 5 6 7 6 6 7 7 7 7 7 7 7 8 8
3 6 4 3 3 2 2 3 7 6 6 5 4 5 6 6 6 5 4 3 2 2 3 4 4 4 4 5 5 5 6 6 6 6 7 7 8 7 8 8 7 8 8 8
0 4 2 8 4 4 6 3 4 7 6 7 7 5 5 6 6 6 5 3 3 3 3 4 3 3 4 4 5 5 6 6 7 7 8 8 8 8 8 7 7 7 8 8
3 1 5 6 3 4 6 2 3 8 7 6 6 3 1 5 6 7 5 4 4 3 3 3 4 4 4 5 5 6 6 7 7 7 8 9 9 9 8 8 8 8 8 8
4 3 5 7 4 5 9 1 4 7 7 7 7 2 5 5 6 6 5 3 3 2 1 2 4 4 4 5 6 6 7 7 7 7 8 9 10 9 8 7 8 8 8 8
4 4 7 7 4 4 3 8 8 8 8 7 7 7 6 6 6 5 4 3 3 1 1 4 4 3 4 5 6 7 7 7 8 8 8 9 8 7 8 8 8 7 8 8
4 3 7 8 4 6 9 6 8 8 8 8 7 6 6 7 7 6 4 3 2 1 3 4 4 3 5 6 6 6 6 7 8 8 8 8 8 8 8 7 7 7 6 7
8 9 9 7 8 8 8 8 8 8 8 9 8 7 8 7 6 5 4 3 2 2 3 4 4 3 5 6 6 6 6 8 8 9 8 7 7 8 7 6 5 5 5 5
2 6 6 5 4 5 8 9 9 9 10 10 9 8 8 7 5 5 4 3 2 2 3 5 5 5 5 6 5 5 7 8 8 8 9 9 6 5 6 6 5 5 4 4
3 5 3 2 5 7 6 7 8 8 9 11 11 9 8 7 7 6 4 3 3 3 4 5 5 5 6 5 4 5 7 7 8 7 8 8 7 6 6 6 5 5 4 4
6 7 5 6 6 7 8 9 11 10 9 8 10 10 9 8 7 6 5 4 3 3 4 5 5 5 5 4 4 5 6 7 6 6 7 6 7 8 8 8 9 8 7 6
7 6 6 5 4 6 9 10 11 11 12 10 9 9 9 7 6 6 5 4 4 4 4 4 4 5 5 4 4 5 6 7 6 6 6 6 6 6 7 8 6 5 6 7
4 2 0 2 3 4 6 8 8 8 9 10 9 8 8 7 6 6 6 6 5 4 3 3 4 5 5 4 5 6 7 8 7 6 6 6 6 6 5 5 6 5 4 6
2 1 2 2 2 1 2 4 5 6 7 7 7 8 9 8 8 7 6 5 3 2 3 3 4 5 4 4 5 6 6 6 6 6 6 6 5 5 5 5 5 4 3 3
4 6 7 7 5 3 2 2 4 6 8 8 7 8 9 8 7 6 5 5 4 3 4 4 4 4 4 4 5 5 6 11 10 6 6 5 5 5 5 4 4 4 4 3
13 11 10 10 9 7 4 2 3 5 6 7 8 8 8 7 6 6 6 6 5 5 4 4 4 3 4 4 4 4 5 8 11 8 5 5 5 5 4 4 4 4 4 4
12 10 9 9 10 10 10 9 5 1 2 5 7 8 9 9 8 8 7 6 4 3 4 4 3 3 3 3 3 4 5 5 6 6 5 5 5 5 4 4 4 5 4 3
15 15 15 15 13 12 11 10 9 6 3 3 5 6 7 8 8 7 6 5 4 4 5 5 4 2 2 3 4 3 5 6 6 6 5 6 5 5 4 4 4 4 4 3
14 14 14 14 14 13 12 10 8 6 4 1 2 4 5 7 7 7 7 6 6 5 5 4 2 2 2 3 5 4 5 6 6 5 4 4 4 5 4 4 4 4 4 3
11 12 13 12 12 11 10 10 8 7 6 4 5 6 7 7 7 6 5 5 6 6 5 4 3 2 1 3 5 4 4 5 4 4 4 4 4 4 5 5 5 4 4 4
9 9 10 10 10 10 10 9 9 9 8 7 7 6 6 7 7 6 7 6 6 7 5 3 3 3 2 3 2 3 4 4 4 4 4 4 4 4 5 5 4 4 4 4
7 8 9 10 10 10 10 10 9 8 8 9 9 8 8 8 6 6 6 5 4 8 5 3 4 4 1 1 2 3 3 4 3 4 4 4 3 3 4 5 4 4 4 4
8 8 9 9 9 8 9 10 10 8 8 8 8 8 7 5 5 5 4 7 10 9 5 5 6 4 1 1 1 2 2 3 3 4 4 4 4 3 3 4 4 4 4 4
9 9 8 9 8 6 7 8 8 8 8 7 8 7 5 4 4 3 4 6 9 8 3 5 6 3 1 0 0 1 1 2 3 3 4 4 4 4 4 3 4 4 4 4
8 7 6 6 5 4 4 4 5 6 6 7 7 7 6 4 1 1 3 5 7 7 4 3 2 2 1 1 1 1 2 2 3 3 4 4 4 4 4 4 5 4 4 5
7 5 4 4 4 4 4 4 4 6 6 6 7 7 6 4 1 2 4 4 5 4 3 3 2 2 2 2 2 2 2 3 3 3 4 4 4 4 4 5 5 5 5 5
Wind_Direction
247 274 314 304 289 163 146 167 162 182 174 198 194 188 190 184 168 151 158 164 169 197 243 262 270 274 273 270 277 280 282 283 280 279 279 280 280 278 275 270 271 263 262 261
326 314 325 316 328 138 128 127 129 133 176 205 188 170 163 159 150 153 163 166 172 209 267 278 279 275 275 275 280 280 281 282 283 287 288 287 284 282 279 275 271 268 264 263
292 314 3 319 260 145 113 139 149 163 187 173 158 166 167 163 159 164 166 173 199 245 263 272 272 266 271 273 281 289 287 288 290 289 289 286 289 290 282 278 273 271 267 262
195 13 323 256 258 123 99 58 120 130 149 162 168 171 179 177 167 171 176 190 229 252 266 272 271 275 276 283 293 295 294 294 296 295 293 291 289 285 282 277 274 270 269 266
130 203 278 289 287 143 119 71 140 134 146 156 151 107 272 206 178 180 187 198 218 233 242 264 281 285 295 301 302 302 299 298 299 299 298 297 294 289 286 282 279 273 270 268
152 178 239 250 248 136 101 143 207 157 159 157 139 118 255 216 180 183 188 197 208 232 254 289 286 293 305 302 302 297 294 295 297 297 297 296 292 287 285 280 277 279 278 273
184 210 251 238 222 118 137 226 204 174 167 163 172 197 210 181 183 185 186 189 185 198 274 279 284 298 301 299 291 285 291 297 299 297 295 292 288 286 287 286 284 283 283 283
164 186 251 239 180 174 209 194 176 173 173 171 184 184 167 171 180 181 180 188 187 221 278 283 288 294 296 292 283 289 296 299 300 298 298 304 296 295 293 289 289 289 289 292
182 209 229 216 201 204 166 168 179 174 178 165 164 171 171 176 180 185 186 205 216 229 280 293 290 281 284 283 288 297 304 302 300 301 299 294 291 294 299 295 286 288 290 292
240 265 252 228 207 182 174 177 178 171 170 165 166 171 171 174 184 192 203 214 219 241 284 291 289 285 272 281 290 300 302 301 301 303 304 303 297 290 292 293 289 287 288 289
291 285 307 261 209 193 182 167 164 169 172 170 163 169 172 179 188 194 202 213 210 229 261 275 284 289 288 290 297 304 302 300 303 300 299 302 299 292 288 277 264 265 272 273
233 236 205 237 235 186 173 180 178 173 176 175 168 171 170 177 183 184 193 201 215 240 258 272 283 289 293 290 295 302 305 305 302 302 302 300 302 307 299 287 287 266 253 256
218 226 204 229 228 192 186 190 184 178 177 179 178 169 165 170 177 179 186 196 212 230 248 266 281 289 291 290 299 300 297 299 299 299 301 302 303 304 310 313 305 281 265 260
229 174 270 274 244 215 191 190 183 179 179 175 171 165 160 160 166 176 191 202 207 221 247 262 277 285 283 293 302 301 299 299 301 296 298 299 298 296 294 300 309 308 282 263
289 142 202 264 319 282 174 143 146 175 180 178 169 163 162 165 175 188 193 187 184 220 256 266 277 282 285 298 303 301 302 300 301 299 299 298 300 301 299 300 299 296 295 290
25 28 29 29 17 360 31 125 170 193 189 182 177 177 172 169 171 177 179 173 177 230 251 256 264 267 283 300 306 304 302 306 311 304 302 305 306 307 305 304 306 305 295 283
47 30 18 15 10 8 1 312 213 197 185 180 182 170 155 151 160 178 191 193 195 216 226 231 244 261 288 298 301 300 303 308 312 311 303 301 303 304 303 302 304 305 296 280
45 40 35 30 19 11 6 3 0 18 168 176 155 150 156 167 182 195 200 199 205 230 230 219 220 261 293 297 297 297 300 300 301 300 301 305 306 302 302 304 306 307 303 302
33 29 24 22 17 11 6 5 4 3 13 116 146 171 185 190 191 193 188 188 209 235 237 222 230 253 287 297 316 301 301 303 304 302 302 311 319 318 315 312 313 311 309 306
26 21 16 12 11 7 358 352 354 357 347 311 195 198 210 213 202 194 189 200 216 213 206 205 214 232 262 298 322 301 298 299 303 306 309 314 317 320 323 324 324 320 318 315
13 7 3 358 353 350 344 338 335 321 302 274 241 230 230 228 213 195 190 219 228 197 191 193 181 193 244 301 315 300 298 303 310 310 313 316 317 320 326 330 333 329 327 326
356 350 343 338 335 329 325 322 318 311 302 290 274 260 251 244 231 219 214 215 203 181 177 174 176 200 252 313 303 302 307 313 320 322 323 324 325 326 327 333 337 340 343 345
332 326 321 317 313 307 308 308 307 306 299 288 277 264 253 246 231 217 232 222 176 175 172 178 186 201 268 312 297 303 314 326 332 332 332 328 325 328 331 337 340 348 349 348
316 311 306 304 308 311 311 308 308 307 302 295 284 274 267 264 258 234 214 178 173 173 176 182 186 202 240 259 287 306 328 339 339 339 341 340 340 348 350 347 348 348 349 353
305 304 306 313 316 310 306 311 320 325 327 322 314 307 298 274 249 228 179 168 167 161 164 184 193 197 187 214 357 5 6 3 356 349 352 350 350 355 354 349 353 356 358 356
297 297 295 294 296 301 313 324 325 323 326 327 322 319 319 316 297 158 152 155 157 157 151 159 179 177 136 106 85 68 52 28 16 6 356 353 355 359 357 360 5 5 6 5
294 298 303 313 316 323 327 330 329 325 322 322 317 312 312 311 300 159 148 149 152 148 144 146 145 139 123 102 88 68 55 40 25 9 1 360 1 0 1 11 15 13 16 17